User: anonymous   Login
Location: Robert Brownlee Observatory
(34.2308°N, 117.2089°W)
Time: 16:52:52
(UTC-08:00)
Language:

Cosmos 1943 - Orbit

View from above orbital plane
View from above orbital plane
View from above satellite
View from above satellite

Ground track
Ground track

The orbit data is extracted from the following two-line orbital elements,

1 19119U 88039A   17057.96711247 +.00000059 +00000-0 +55216-4 0  9993
2 19119 071.0048 333.2453 0013336 231.3865 203.5886 14.15081070486232
Epoch (UTC): 26 February 2017 23:12:38
Eccentricity: 0.0013336
inclination: 71.0048°
perigee height: 832 km
apogee height: 851 km
right ascension of ascending node: 333.2453°
argument of perigee: 231.3865°
revolutions per day: 14.15081070
mean anomaly at epoch: 203.5886°
orbit number at epoch: 48623

The dashed part of the orbit path shows where the satellite is in the earth's shadow,  

DLR